Metropolis, IL

9:20 AM CDT on October 15, 2019 (GMT -0500)
Metropolis

Weather History for KM30 - August, 2019

Change the Weather History Date:

Monday, August 12, 2019

  Actual Average (KPAH) Record (KPAH)
Temperature  
Mean Temperature 81 °F -  
Max Temperature 91 °F 85 °F 104 °F (2010)
Min Temperature 71 °F 64 °F 52 °F (1967)
Cooling Degree Days 16    
Growing Degree Days 31 (Base 50)    
Moisture  
Dew Point 75 °F    
Average Humidity 81    
Maximum Humidity 97    
Minimum Humidity 65    
Precipitation  
Precipitation 0.00 in - - ()
Sea Level Pressure  
Sea Level Pressure 29.91 in    
Wind  
Wind Speed 2 mph (SSW)    
Max Wind Speed 12 mph    
Max Gust Speed -    
Visibility 9 miles    
Events      
Averages and records for this station are not official NWS values.
T = Trace of Precipitation, MM = Missing Value Source: NWS Daily Summary

Daily Weather History Graph

Daily Weather History Graph

Search for Another Location

Airport or City:

Astronomy

Aug. 12, 2019 Rise Set
Actual Time 6:08 AM CDT 7:50 PM CDT
Civil Twilight 5:40 AM CDT 8:18 PM CDT
Nautical Twilight 5:07 AM CDT 8:52 PM CDT
Astronomical Twilight 4:31 AM CDT 9:27 PM CDT
Moon 6:17 PM CDT (8/12) 3:20 AM CDT (8/12)
Length of Visible Light 14h 37m
Length of Day
13h 41m
Waxing Gibbous, 93% of the Moon is Illuminated
Aug 12
Waxing Gibbous
Aug 15
Full
Aug 23
Last Quarter
Aug 30
New
Sep 5
First Quarter

Hourly Weather History & Observations

Time (CDT) Temp. Heat Index Dew Point Humidity Pressure Visibility Wind Dir Wind Speed Gust Speed Precip Events Conditions
12:15 AM 72.9 °F - 71.4 °F 95% 29.97 in 10.0 mi Calm Calm - N/A   Clear
12:35 AM 72.7 °F - 71.6 °F 96% 29.98 in 10.0 mi Calm Calm - N/A   Clear
12:55 AM 72.5 °F - 71.2 °F 96% 29.97 in 7.0 mi Calm Calm - N/A   Clear
1:15 AM 72.5 °F - 71.6 °F 97% 29.97 in 7.0 mi Calm Calm - N/A   Clear
1:35 AM 73.0 °F - 72.0 °F 96% 29.96 in 7.0 mi Calm Calm - N/A   Scattered Clouds
1:55 AM 73.0 °F - 71.8 °F 96% 29.96 in 10.0 mi Calm Calm - N/A   Scattered Clouds
2:15 AM 73.4 °F - 72.0 °F 95% 29.96 in 10.0 mi Calm Calm - N/A   Clear
2:35 AM 73.4 °F - 72.0 °F 95% 29.96 in 10.0 mi Calm Calm - N/A   Clear
2:55 AM 73.4 °F - 71.8 °F 95% 29.96 in 10.0 mi Calm Calm - N/A   Clear
3:15 AM 72.5 °F - 71.6 °F 97% 29.95 in 7.0 mi Calm Calm - N/A   Clear
3:35 AM 72.9 °F - 71.6 °F 96% 29.95 in 10.0 mi Calm Calm - N/A   Scattered Clouds
3:55 AM 72.5 °F - 71.1 °F 95% 29.94 in 10.0 mi Calm Calm - N/A   Scattered Clouds
4:15 AM 72.0 °F - 70.9 °F 96% 29.94 in 10.0 mi Calm Calm - N/A   Clear
4:35 AM 72.0 °F - 70.9 °F 96% 29.94 in 7.0 mi Calm Calm - N/A   Scattered Clouds
4:55 AM 71.8 °F - 70.9 °F 97% 29.94 in 7.0 mi Calm Calm - N/A   Scattered Clouds
5:15 AM 72.1 °F - 71.2 °F 97% 29.93 in 7.0 mi Calm Calm - N/A   Clear
5:35 AM 72.5 °F - 71.6 °F 97% 29.94 in 7.0 mi Calm Calm - N/A   Clear
5:55 AM 72.5 °F - 71.6 °F 97% 29.94 in 7.0 mi Calm Calm - N/A   Clear
6:15 AM 72.1 °F - 71.1 °F 96% 29.95 in 5.0 mi Calm Calm - N/A   Clear
6:35 AM 72.5 °F - 71.6 °F 97% 29.96 in 4.0 mi Calm Calm - N/A   Mostly Cloudy
6:55 AM 73.2 °F - 71.8 °F 95% 29.95 in 5.0 mi Calm Calm - N/A   Mostly Cloudy
7:15 AM 74.8 °F - 70.0 °F 85% 29.96 in 10.0 mi Calm Calm - N/A   Overcast
7:35 AM 75.4 °F - 69.4 °F 82% 29.96 in 10.0 mi South 4.6 mph - N/A   Mostly Cloudy
7:55 AM 76.1 °F - 69.1 °F 79% 29.96 in 10.0 mi SSW 5.8 mph - N/A   Mostly Cloudy
8:15 AM 76.5 °F - 69.8 °F 80% 29.97 in 10.0 mi SSW 5.8 mph - N/A   Overcast
8:35 AM 77.2 °F - 70.0 °F 78% 29.97 in 10.0 mi South 3.5 mph - N/A   Overcast
8:55 AM 77.5 °F - 70.7 °F 79% 29.97 in 10.0 mi South 4.6 mph - N/A   Overcast
9:15 AM 78.4 °F - 71.6 °F 79% 29.97 in 10.0 mi SSW 6.9 mph - N/A   Overcast
9:35 AM 79.7 °F - 72.3 °F 78% 29.97 in 10.0 mi South 5.8 mph - N/A   Overcast
9:55 AM 80.8 °F 85.2 °F 72.7 °F 76% 29.97 in 10.0 mi South 5.8 mph - N/A   Overcast
10:15 AM 82.0 °F 87.9 °F 73.8 °F 76% 29.97 in 10.0 mi South 5.8 mph - N/A   Overcast
10:35 AM 83.3 °F 90.2 °F 74.3 °F 74% 29.97 in 10.0 mi SW 6.9 mph - N/A   Mostly Cloudy
10:55 AM 85.1 °F 93.3 °F 74.8 °F 71% 29.97 in 10.0 mi SW 5.8 mph - N/A   Scattered Clouds
11:15 AM 86.5 °F 95.9 °F 75.2 °F 69% 29.97 in 7.0 mi SW 5.8 mph - N/A   Scattered Clouds
11:35 AM 86.5 °F 96.4 °F 75.7 °F 70% 29.96 in 5.0 mi West 3.5 mph - N/A   Haze
11:55 AM 87.1 °F 97.3 °F 75.9 °F 69% 29.96 in 5.0 mi SSW 4.6 mph - N/A   Haze
12:15 PM 88.5 °F 101.1 °F 77.2 °F 69% 29.94 in 10.0 mi SW 5.8 mph - N/A   Scattered Clouds
12:35 PM 89.2 °F 102.4 °F 77.4 °F 68% 29.94 in 10.0 mi SW 4.6 mph - N/A   Mostly Cloudy
12:55 PM 89.1 °F 100.8 °F 76.5 °F 66% 29.93 in 10.0 mi SW 4.6 mph - N/A   Overcast
1:15 PM 90.7 °F 105.2 °F 77.9 °F 66% 29.92 in 10.0 mi SW 5.8 mph - N/A   Scattered Clouds
1:35 PM 89.6 °F 101.6 °F 76.6 °F 65% 29.91 in 10.0 mi WSW 4.6 mph - N/A   Mostly Cloudy
1:55 PM 91.0 °F 106.2 °F 78.3 °F 66% 29.91 in 10.0 mi SSW 4.6 mph - N/A   Mostly Cloudy
2:15 PM 90.7 °F 105.9 °F 78.4 °F 67% 29.90 in 10.0 mi South 3.5 mph - N/A   Scattered Clouds
2:35 PM 89.6 °F 104.7 °F 78.4 °F 70% 29.89 in 10.0 mi South 5.8 mph - N/A   Mostly Cloudy
2:55 PM 89.4 °F 103.6 °F 78.3 °F 69% 29.88 in 10.0 mi SSW 4.6 mph - N/A   Overcast
3:15 PM 90.7 °F 106.6 °F 78.6 °F 68% 29.88 in 10.0 mi South 5.8 mph - N/A   Mostly Cloudy
3:35 PM 91.8 °F 108.3 °F 79.0 °F 66% 29.87 in 10.0 mi South 9.2 mph - N/A   Mostly Cloudy
3:50 PM 91.0 °F 106.9 °F 78.8 °F 67% 29.86 in 10.0 mi South 8.1 mph - N/A   Mostly Cloudy
4:15 PM 91.6 °F 107.0 °F 78.4 °F 65% 29.86 in 10.0 mi SSW 11.5 mph - N/A   Scattered Clouds
4:35 PM 90.7 °F 106.6 °F 78.6 °F 68% 29.86 in 10.0 mi SSW 6.9 mph - N/A   Mostly Cloudy
4:55 PM 91.6 °F 108.5 °F 79.3 °F 67% 29.85 in 10.0 mi SSW 6.9 mph - N/A   Mostly Cloudy
5:15 PM 91.4 °F 108.0 °F 79.0 °F 67% 29.85 in 10.0 mi SSW 9.2 mph - N/A   Mostly Cloudy
5:35 PM 90.9 °F 107.8 °F 79.5 °F 69% 29.85 in 10.0 mi South 9.2 mph - N/A   Mostly Cloudy
5:55 PM 90.9 °F 107.1 °F 79.2 °F 68% 29.84 in 10.0 mi SSW 4.6 mph - N/A   Clear
6:15 PM 90.5 °F 107.4 °F 79.5 °F 70% 29.84 in 10.0 mi SSW 4.6 mph - N/A   Clear
6:35 PM 90.3 °F 107.6 °F 79.9 °F 71% 29.84 in 10.0 mi SSW 4.6 mph - N/A   Scattered Clouds
6:55 PM 89.6 °F 106.1 °F 79.5 °F 72% 29.85 in 10.0 mi SW 5.8 mph - N/A   Scattered Clouds
7:15 PM 88.7 °F 105.3 °F 79.7 °F 75% 29.84 in 10.0 mi Calm Calm - N/A   Clear
7:35 PM 86.9 °F 102.1 °F 79.7 °F 79% 29.84 in 10.0 mi South 3.5 mph - N/A   Clear
7:55 PM 86.2 °F 100.4 °F 79.3 °F 80% 29.85 in 10.0 mi Calm Calm - N/A   Clear
8:35 PM 84.2 °F 96.6 °F 79.2 °F 85% 29.86 in 10.0 mi Calm Calm - N/A   Clear
8:55 PM 84.4 °F 96.7 °F 79.0 °F 84% 29.85 in 7.0 mi South 3.5 mph - N/A   Clear
9:15 PM 84.2 °F 96.1 °F 78.8 °F 84% 29.85 in 10.0 mi Calm Calm - N/A   Clear
9:55 PM 83.7 °F 94.9 °F 78.8 °F 85% 29.85 in 10.0 mi South 4.6 mph - N/A   Clear
10:15 PM 83.3 °F 94.2 °F 78.8 °F 86% 29.84 in 10.0 mi South 5.8 mph - N/A   Clear
10:35 PM 82.8 °F 92.9 °F 78.4 °F 87% 29.83 in 10.0 mi South 4.6 mph - N/A   Clear
10:55 PM 82.6 °F 92.3 °F 78.4 °F 87% 29.84 in 10.0 mi SSW 3.5 mph - N/A   Clear
11:15 PM 82.6 °F 92.3 °F 78.4 °F 87% 29.85 in 10.0 mi South 3.5 mph - N/A   Clear
11:35 PM 82.4 °F 92.1 °F 78.6 °F 88% 29.84 in 10.0 mi South 4.6 mph - N/A   Clear
11:55 PM 82.4 °F 92.1 °F 78.4 °F 88% 29.85 in 10.0 mi SSW 5.8 mph - N/A   Clear